• In Österreich
  • Länderverzeichnis
  • Für 7 Tage
  • Wassertemperatur
  • Satellitenkarten
  • Wetterkarte
  • News
  • Widgets
  • user-avatar
    Anmelden

    Stündliche Wetter Ali Bajramli

    Heute, 16 Dezember, Samstag

    Zeit Temperatur Niederschläge Wind Luftdruck Luftfeuchtigkeit
    00:00 +10°C° 0 mm 2 m/S 764 mmHg 90%
    01:00 +9°C° 0 mm 2 m/S 764 mmHg 90%
    02:00 +9°C° 0 mm 2 m/S 765 mmHg 90%
    03:00 +9°C° 0 mm 2 m/S 765 mmHg 90%
    04:00 +10°C° 0 mm 1 m/S 765 mmHg 90%
    05:00 +10°C° 0 mm 1 m/S 765 mmHg 90%
    06:00 +9°C° 0 mm 1 m/S 766 mmHg 91%
    07:00 +10°C° 0 mm 1 m/S 766 mmHg 88%
    08:00 +10°C° 0 mm 1 m/S 766 mmHg 85%
    09:00 +11°C° 0 mm 1 m/S 767 mmHg 83%
    10:00 +12°C° 0 mm 1 m/S 767 mmHg 78%
    11:00 +12°C° 0 mm 1 m/S 766 mmHg 74%
    12:00 +12°C° 0 mm 0 m/S 766 mmHg 69%
    13:00 +14°C° 0 mm 1 m/S 766 mmHg 68%
    14:00 +14°C° 0 mm 1 m/S 766 mmHg 66%
    15:00 +14°C° 0 mm 2 m/S 766 mmHg 65%
    16:00 +13°C° 0 mm 2 m/S 766 mmHg 69%
    17:00 +13°C° 0 mm 2 m/S 766 mmHg 74%
    18:00 +12°C° 0 mm 2 m/S 767 mmHg 79%
    19:00 +12°C° 0 mm 2 m/S 767 mmHg 82%
    20:00 +10°C° 0 mm 2 m/S 767 mmHg 84%
    21:00 +10°C° 0 mm 2 m/S 767 mmHg 86%
    22:00 +10°C° 0 mm 2 m/S 767 mmHg 87%
    23:00 +9°C° 0 mm 2 m/S 767 mmHg 88%

    Morgen, 17 Dezember, Sonntag

    Zeit Temperatur Niederschläge Wind Luftdruck Luftfeuchtigkeit
    00:00 +9°C° 0 mm 2 m/S 767 mmHg 89%
    01:00 +10°C° 0 mm 1 m/S 767 mmHg 89%
    02:00 +11°C° 0 mm 1 m/S 767 mmHg 89%
    03:00 +11°C° 0 mm 1 m/S 766 mmHg 88%
    04:00 +11°C° 0 mm 1 m/S 766 mmHg 88%
    05:00 +11°C° 0 mm 1 m/S 766 mmHg 89%
    06:00 +10°C° 0 mm 2 m/S 766 mmHg 89%
    07:00 +10°C° 0,1 mm 2 m/S 766 mmHg 88%
    08:00 +10°C° 0,1 mm 2 m/S 767 mmHg 87%
    09:00 +12°C° 0,1 mm 2 m/S 767 mmHg 86%
    10:00 +12°C° 0,1 mm 2 m/S 766 mmHg 83%
    11:00 +13°C° 0,1 mm 2 m/S 766 mmHg 80%
    12:00 +13°C° 0,1 mm 2 m/S 766 mmHg 77%
    13:00 +13°C° 0 mm 2 m/S 766 mmHg 76%
    14:00 +13°C° 0 mm 2 m/S 765 mmHg 75%
    15:00 +14°C° 0 mm 2 m/S 765 mmHg 74%
    16:00 +13°C° 0 mm 2 m/S 765 mmHg 77%
    17:00 +12°C° 0 mm 3 m/S 766 mmHg 79%
    18:00 +12°C° 0 mm 3 m/S 766 mmHg 81%
    19:00 +12°C° 0,1 mm 3 m/S 766 mmHg 82%
    20:00 +11°C° 0,1 mm 3 m/S 766 mmHg 83%
    21:00 +11°C° 0,1 mm 3 m/S 766 mmHg 83%
    22:00 +11°C° 0,1 mm 3 m/S 766 mmHg 84%
    23:00 +11°C° 0,1 mm 3 m/S 765 mmHg 84%

    übermorgen, 18 Dezember, Montag

    Zeit Temperatur Niederschläge Wind Luftdruck Luftfeuchtigkeit
    00:00 +11°C° 0,1 mm 3 m/S 765 mmHg 85%
    01:00 +11°C° 0,1 mm 3 m/S 765 mmHg 85%
    02:00 +11°C° 0,1 mm 3 m/S 765 mmHg 86%
    03:00 +11°C° 0,1 mm 3 m/S 765 mmHg 86%
    04:00 +11°C° 0,1 mm 3 m/S 765 mmHg 86%
    05:00 +11°C° 0,1 mm 3 m/S 764 mmHg 86%
    06:00 +10°C° 0,1 mm 3 m/S 764 mmHg 85%
    07:00 +11°C° 0 mm 3 m/S 764 mmHg 84%
    08:00 +11°C° 0 mm 3 m/S 765 mmHg 83%
    09:00 +11°C° 0 mm 3 m/S 765 mmHg 82%
    10:00 +11°C° 0 mm 3 m/S 764 mmHg 79%
    11:00 +12°C° 0 mm 3 m/S 764 mmHg 76%
    12:00 +12°C° 0 mm 3 m/S 763 mmHg 73%
    13:00 +12°C° 0 mm 3 m/S 763 mmHg 71%
    14:00 +12°C° 0 mm 3 m/S 763 mmHg 69%
    15:00 +14°C° 0 mm 2 m/S 763 mmHg 67%
    16:00 +13°C° 0 mm 2 m/S 763 mmHg 70%
    17:00 +12°C° 0 mm 2 m/S 763 mmHg 74%
    18:00 +10°C° 0 mm 2 m/S 763 mmHg 77%
    19:00 +10°C° 0 mm 2 m/S 763 mmHg 79%
    20:00 +10°C° 0 mm 2 m/S 763 mmHg 81%
    21:00 +10°C° 0 mm 1 m/S 763 mmHg 83%
    22:00 +10°C° 0 mm 1 m/S 763 mmHg 83%
    23:00 +10°C° 0 mm 1 m/S 763 mmHg 84%

    19 Dezember, Dienstag

    Zeit Temperatur Niederschläge Wind Luftdruck Luftfeuchtigkeit
    00:00 +10°C° 0 mm 1 m/S 762 mmHg 85%
    01:00 +10°C° 0 mm 1 m/S 762 mmHg 86%
    02:00 +9°C° 0 mm 1 m/S 762 mmHg 86%
    03:00 +9°C° 0 mm 1 m/S 762 mmHg 87%
    04:00 +8°C° 0 mm 2 m/S 762 mmHg 86%
    05:00 +8°C° 0 mm 2 m/S 762 mmHg 86%
    06:00 +8°C° 0 mm 2 m/S 762 mmHg 85%
    07:00 +8°C° 0 mm 3 m/S 762 mmHg 82%
    08:00 +9°C° 0 mm 3 m/S 762 mmHg 79%
    09:00 +9°C° 0 mm 3 m/S 762 mmHg 76%
    10:00 +10°C° 0 mm 3 m/S 761 mmHg 68%
    11:00 +12°C° 0 mm 4 m/S 761 mmHg 59%
    12:00 +13°C° 0 mm 4 m/S 760 mmHg 51%
    13:00 +13°C° 0 mm 4 m/S 760 mmHg 48%
    14:00 +14°C° 0 mm 4 m/S 760 mmHg 45%
    15:00 +14°C° 0 mm 4 m/S 759 mmHg 42%
    16:00 +13°C° 0 mm 4 m/S 760 mmHg 44%
    17:00 +13°C° 0 mm 3 m/S 760 mmHg 47%
    18:00 +12°C° 0 mm 3 m/S 760 mmHg 49%
    19:00 +11°C° 0 mm 3 m/S 760 mmHg 50%
    20:00 +11°C° 0 mm 3 m/S 761 mmHg 51%
    21:00 +12°C° 0 mm 2 m/S 761 mmHg 52%
    22:00 +10°C° 0 mm 2 m/S 761 mmHg 54%
    23:00 +10°C° 0 mm 2 m/S 761 mmHg 55%

    20 Dezember, Mittwoch

    Zeit Temperatur Niederschläge Wind Luftdruck Luftfeuchtigkeit
    00:00 +9°C° 0 mm 2 m/S 761 mmHg 56%
    01:00 +9°C° 0 mm 2 m/S 762 mmHg 58%
    02:00 +9°C° 0 mm 2 m/S 762 mmHg 60%
    03:00 +9°C° 0 mm 2 m/S 762 mmHg 62%
    04:00 +9°C° 0 mm 2 m/S 763 mmHg 66%
    05:00 +8°C° 0 mm 3 m/S 764 mmHg 69%
    06:00 +8°C° 0 mm 3 m/S 764 mmHg 73%
    07:00 +9°C° 0 mm 3 m/S 765 mmHg 72%
    08:00 +8°C° 0 mm 4 m/S 765 mmHg 72%
    09:00 +10°C° 0 mm 4 m/S 766 mmHg 72%
    10:00 +11°C° 0 mm 4 m/S 766 mmHg 68%
    11:00 +12°C° 0 mm 4 m/S 766 mmHg 65%
    12:00 +12°C° 0 mm 4 m/S 766 mmHg 61%
    13:00 +13°C° 0 mm 4 m/S 766 mmHg 61%
    14:00 +13°C° 0 mm 4 m/S 766 mmHg 61%
    15:00 +13°C° 0 mm 3 m/S 766 mmHg 62%
    16:00 +12°C° 0 mm 3 m/S 766 mmHg 67%
    17:00 +11°C° 0 mm 3 m/S 766 mmHg 72%
    18:00 +10°C° 0 mm 3 m/S 767 mmHg 77%
    19:00 +10°C° 0 mm 3 m/S 767 mmHg 80%
    20:00 +9°C° 0 mm 3 m/S 767 mmHg 82%
    21:00 +9°C° 0 mm 3 m/S 767 mmHg 84%
    22:00 +9°C° 0 mm 2 m/S 766 mmHg 86%
    23:00 +8°C° 0 mm 2 m/S 766 mmHg 87%

    21 Dezember, Donnerstag

    Zeit Temperatur Niederschläge Wind Luftdruck Luftfeuchtigkeit
    00:00 +9°C° 0 mm 1 m/S 766 mmHg 89%
    01:00 +9°C° 0 mm 1 m/S 766 mmHg 89%
    02:00 +9°C° 0 mm 1 m/S 765 mmHg 89%
    03:00 +9°C° 0 mm 1 m/S 765 mmHg 89%
    04:00 +9°C° 0 mm 1 m/S 765 mmHg 89%
    05:00 +9°C° 0 mm 1 m/S 765 mmHg 89%
    06:00 +9°C° 0 mm 1 m/S 765 mmHg 89%
    07:00 +8°C° 0 mm 2 m/S 765 mmHg 87%
    08:00 +9°C° 0 mm 2 m/S 765 mmHg 86%
    09:00 +9°C° 0 mm 2 m/S 764 mmHg 84%
    10:00 +10°C° 0 mm 2 m/S 764 mmHg 81%
    11:00 +10°C° 0 mm 2 m/S 763 mmHg 78%
    12:00 +11°C° 0 mm 3 m/S 762 mmHg 75%
    13:00 +11°C° 0 mm 3 m/S 762 mmHg 73%
    14:00 +13°C° 0 mm 2 m/S 761 mmHg 72%
    15:00 +13°C° 0 mm 2 m/S 761 mmHg 71%
    16:00 +12°C° 0 mm 2 m/S 761 mmHg 74%
    17:00 +12°C° 0 mm 2 m/S 761 mmHg 77%
    18:00 +10°C° 0 mm 2 m/S 761 mmHg 80%
    19:00 +10°C° 0 mm 2 m/S 761 mmHg 80%
    20:00 +9°C° 0 mm 2 m/S 761 mmHg 80%
    21:00 +9°C° 0 mm 2 m/S 761 mmHg 80%
    22:00 +9°C° 0 mm 2 m/S 761 mmHg 80%
    23:00 +9°C° 0 mm 2 m/S 760 mmHg 80%
    Mehr zeigen